Regional Weather Roundup
Issued by NWS Newport/Morehead, NC

Home | Current Version | Previous Version | Text Only | Print | Product List | Glossary On
Versions: 1 2 3 4 5 6 7 8 9 10 11 12 13 14 15 16 17 18 19 20 21 22 23 24 25 26 27 28 29 30 31 32 33 34 35 36 37 38 39 40 41 42 43 44 45 46 47 48 49 50
785
ASUS42 KMHX 131525
RWRMHX
WEATHER ROUNDUP FOR EASTERN NORTH CAROLINA
NATIONAL WEATHER SERVICE NEWPORT/MOREHEAD CITY NC
1000 AM EST SAT FEB 13 2016

NOTE: "FAIR" INDICATES FEW OR NO CLOUDS BELOW 12,000 FEET
WITH NO SIGNIFICANT WEATHER AND/OR OBSTRUCTIONS TO VISIBILITY

NCZ015>017-031-032-045>047-102-103-131600-
NORTH COAST

CITY           SKY/WX    TMP DP  RH WIND       PRES   REMARKS
EDENTON        SUNNY     32  10  40 NW20G29   30.25R
ELIZABETH CITY SUNNY     29  12  49 NW23      30.23R WCI  15
KITTY HAWK     NOT AVBL
MANTEO         NOT AVBL

$$

NCZ045>047-081-094-103-104-131600-
CENTRAL COAST

CITY           SKY/WX    TMP DP  RH WIND       PRES   REMARKS
FRISCO         SUNNY     36  20  52 VRB7G18   30.20R
SWANQUARTER      N/A    N/A N/A N/A N3        30.21R

$$

NCZ095-097-098-100-101-131600-
SOUTHERN COAST

CITY           SKY/WX    TMP DP  RH WIND       PRES   REMARKS
BEAUFORT       SUNNY     36  20  52 N22G31    30.23R
CEDAR ISLAND     N/A     34 N/A N/A NW23G36   30.27S
JACKSONVILLE   SUNNY     35  19  52 N21G30    30.25R
PINEY ISLAND   MOSUNNY  N/A N/A N/A N22G29    30.22R
WILMINGTON     SUNNY     39  22  50 N13G23    30.26R


$$

NCZ011>013-027>030-043-044-078>080-089-090>093-098-131600-
COASTAL PLAIN

CITY           SKY/WX    TMP DP  RH WIND       PRES   REMARKS
AHOSKIE        NOT AVBL
CLINTON        SUNNY     33  24  71 N8        30.28R
ELIZABETHTOWN  SUNNY     35  17  47 N7        30.27R
GOLDSBORO      SUNNY     32  10  40 NW16G26   30.26R
GREENVILLE     SUNNY     32   5  32 N17G25    30.28R
HAVELOCK       SUNNY     35  21  56 N24G30    30.25R
KENANSVILLE    SUNNY     32  22  66 N10G16    30.28R
KINSTON        SUNNY     30  19  64 N13       30.27R
NEW BERN       SUNNY     33  21  61 NW17G24   30.26R
RICHLANDS      SUNNY     34  21  60 CALM      30.27R
ROCKY MOUNT    SUNNY     30   2  30 NW18      30.29R WCI  18
WASHINGTON     SUNNY     32   9  38 NW12G21   30.26R
WHITEVILLE     SUNNY     37  13  38 N9        30.27R

$$

AMZ130-135-150-152-154-156-158-170-250-252-270-ANZ085-086-088-633-658-670-131600-
MARINE OBSERVATIONS

STATION/POSITION TIME  TEMP    WIND        PRES    WAVE   SWELL
                       AIR SEA DIR/SP/G            HT/PER HT/PER
                 (UTC) (F)     (DEG/KT/KT) (MB)    (FT/S) (FT/S)
CHESAPEAKE LIGHT 1500   26     330/ 32/ 35 1023.1
64 E VA BEACH    1450   31 48  330/ 27/ 33 1020.2    9/ 7
DUCK             1500   28     330/ 25/ 29 1022.0
2 E DUCK         1511      42                N/A     5/ 6
OREGON INLET     1500   30 38  320/ 17/ 23 1022.8
13E OREGON INLT  1500      45                N/A     6/ 5   2/11
HATTERAS CG      1500   33 43  340/ 21/ 24 1022.4
DIAMOND BUOY     1450   38 71  340/ 19/ 25 1021.9    6/ 8   2/11
CAPE LOOKOUT     NOT AVBL
BEAUFORT LAB     1500   35 42  340/ 14/ 21 1022.7
30 SE NEW RVR IN 1508   39 62              1022.9
30 SE NEW RVR IN 1425      61                N/A     5/ 5
27 SE WRIGHTSVLE 1508   41 60  360/ 19/ 29 1022.3
5 SE WRIGHTSVLE  1408   38 50  360/ 17/ 21 1023.9
225 S CAPE HAT   1450   59 68  310/ 21/ 27   N/A    10/ 7
41 SE CHARLESTON 1450   46 67  360/ 17/ 23 1023.7    5/ 5   2/ 9

$$




USA.gov is the U.S. government's official web portal to all federal, state and local government web resources and services.